Location: Newark
(16.3678°N, 77.8722°E)
Time: 13:36:14
(UTC+00:00)

S-56A Canister/Altair - Pass Details

Date: 14 December 2019
Orbit: 634 x 2498 km, 38.9° (Epoch: 16 January)

Event Time Altitude Azimuth Distance (km) Brightness Sun altitude
Rises 23:06:15 0° 184° (S) 3,924 11.3 -28.2°
Reaches altitude 10° 23:09:57 10° 164° (SSE) 3,284 11.1 -27.4°
Maximum altitude 23:15:01 17° 126° (SE) 3,187 11.4 -26.3°
Drops below altitude 10° 23:21:14 10° 91° (E) 4,194 12.2 -24.8°
Sets 23:26:55 0° 74° (ENE) 5,566 12.8 -23.5°
